Hourly Data Report for October 05, 2003

SHERBROOKE A
QUEBEC

45°26'00.000" N
71°41'00.000" W
241.40 m
7028124
71610
YSC

Download Data

Hourly Data (October 2003)
Hourly Data Report for October 5, 2003
TIME
LST
Temp Definition
°C
Dew Point Definition
°C
Rel Hum Definition
%
Precip. Amount Definition
mm

Wind Dir Definition
10's deg

Wind Spd Definition
km/h
Visibility Definition
km
Stn Press Definition
kPa
Hmdx Definition


Wind Chill Definition


Weather Definition


00:00 4.8 3.7 93   18 4 15.0 97.77      
01:00 4.6 3.8 95   20 6 15.0 97.78      
02:00 4.4 3.4 93   20 6 15.0 97.77      
03:00 4.5 3.4 93   23 15 8.0 97.79     Rain
04:00 3.8 2.9 94   19 6 15.0 97.81      
05:00 4.0 2.9 93   21 7 15.0 97.85     Rain
06:00 3.4 2.6 94   23 4 15.0 97.89      
07:00 3.4 2.4 93   24 7 24.1 97.94     Mainly Clear
08:00 5.8 4.2 89   23 13 24.1 97.96     Mainly Clear
09:00 5.9 3.7 86   22 7 24.1 97.95     Mostly Cloudy
10:00 6.3 3.1 80   21 22 24.1 97.95     Mostly Cloudy
11:00 6.9 2.9 76   25 22 19.3 97.94     Rain Showers
12:00 5.1 3.5 89   25 30 19.3 98.03     Rain Showers
13:00 6.2 5.0 92   22 11 24.1 98.02     Mostly Cloudy
14:00 5.8 4.0 88   24 9 24.1 98.05     Mostly Cloudy
15:00 6.9 4.3 83   23 11 24.1 98.06     Mostly Cloudy
16:00 6.8 1.1 67   26 17 24.1 98.12     Mainly Clear
17:00 5.8 0.1 67   26 17 15.0 98.20      
18:00 5.0 0.3 72   25 11 15.0 98.28      
19:00 4.3 0.2 75   23 7 15.0 98.35      
20:00 3.8 0.4 78   21 7 15.0 98.40      
21:00 3.8 0.5 79   23 7 15.0 98.43      
22:00 4.1 0.5 77   22 9 15.0 98.46      
23:00 4.4 0.9 78   23 11 15.0 98.46      

Notes on Data Quality.

Legend

  • E = Estimated
  • M = Missing
  • NA = Not Available*
  • [empty] = Indicates an unobserved value
Date modified: